This demonstration page uses our WeatherBlox Daily Observations layout. Learn more.

41.55636, -103.73856

Hourly Observations for May 2, 2018

Temp ( °F °C ) Dew Point ( °F °C ) Humidity (%) Winds ( mph kmh ) Pressure ( in mb ) Visibility ( mi km ) Precip ( " mm )
12:53 am 00:53 Clear 44 6.7 44 6.7 100 100 ENE 3 6 29.85 1011 10 16.09344 0 0
1:53 am 01:53 Clear 41 5 41 5 100 100 S 6 9 29.85 1011 10 16.09344 0 0
1:59 am 01:59 Mostly Clear with Mist and Fog 41 5 41 5 100 100 S 7 11 29.97 1015 1.75 2.816352 0 0
2:01 am 02:01 Mostly Cloudy with Mist and Fog 41 5 41 5 100 100 S 6 9 29.97 1015 0.75 1.207008 0 0
2:11 am 02:11 Mostly Cloudy with Fog 41 5 41 5 100 100 Calm 29.97 1015 0.25 0.402336 0 0
2:35 am 02:35 Mostly Cloudy with Fog 39 3.9 39 3.9 100 100 NE 6 9 29.97 1015 0.5 0.804672 0 0
2:40 am 02:40 Partly Cloudy with Mist and Fog 39 4 39 4 100 100 NE 7 11 29.97 1015 1.25 2.01168 0 0
2:45 am 02:45 Mostly Clear with Mist and Fog 40 4.4 40 4.4 100 100 ENE 8 13 29.97 1015 3 4.828032 0 0
2:53 am 02:53 Mostly Clear with Mist and Fog 40 4.4 40 4.4 100 100 E 7 11 29.88 1012 6 9.656064 0 0
3:53 am 03:53 Clear 41 5 41 5 100 100 ESE 6 9 29.91 1013 10 16.09344 0 0
4:53 am 04:53 Clear 42 5.6 42 5.6 100 100 N 3 6 29.91 1013 10 16.09344 0 0
5:53 am 05:53 Sunny 41 5 41 5 100 100 ESE 3 6 29.91 1013 9 14.484096 0 0
6:53 am 06:53 Sunny with Mist and Fog 42 5.6 42 5.6 100 100 SE 5 7 29.91 1013 4 6.437376 0 0
7:00 am 07:00 Partly Cloudy with Mist and Fog 43 6 43 6 100 100 SE 5 7 29.94 1014 2.5 4.02336 0 0
7:04 am 07:04 Mostly Cloudy with Mist and Fog 43 6 43 6 100 100 SE 5 7 29.94 1014 1.5 2.414016 0 0
7:12 am 07:12 Mostly Cloudy with Fog 43 6 43 6 100 100 SE 5 7 29.94 1014 0.5 0.804672 0 0
7:22 am 07:22 Cloudy with Mist and Fog 42 5.6 42 5.6 100 100 SE 5 7 29.94 1014 2 3.218688 0 0
7:30 am 07:30 Cloudy with Mist and Fog 42 5.6 42 5.6 100 100 SSE 3 6 29.94 1014 5 8.04672 0 0
7:43 am 07:43 Cloudy 42 5.6 42 5.6 100 100 ESE 3 6 29.97 1015 8 12.874752 0 0
7:53 am 07:53 Cloudy 43 6.1 43 6.1 100 100 E 3 6 29.94 1014 8 12.874752 0 0
8:53 am 08:53 Cloudy with Light Rain 45 7.2 45 7.2 100 100 E 5 7 29.94 1014 10 16.09344 0.001 0.001
9:53 am 09:53 Cloudy 47 8.3 46 7.8 97 97 Calm 29.94 1014 10 16.09344 0.001 0.001
10:53 am 10:53 Cloudy with Light Rain 49 9.4 47 8.3 93 93 WNW 3 6 29.97 1015 10 16.09344 0.001 0.001
11:34 am 11:34 Cloudy with Light Rain 48 9 48 9 100 100 S 5 7 29.97 1015 6 9.656064 0 0
11:53 am 11:53 Cloudy with Light Rain 49 9.4 48 8.9 97 97 SSE 5 7 29.97 1015 2.5 4.02336 0.06 1.524
12:00 pm 12:00 Cloudy with Light Rain 48 9 48 9 100 100 SE 5 7 29.97 1015 5 8.04672 0 0
12:53 pm 12:53 Cloudy with Light Rain 51 10.6 48 8.9 89 89 Calm 29.94 1014 10 16.09344 0.03 0.762
1:53 pm 13:53 Mostly Cloudy 54 12.2 46 7.8 75 75 N 3 6 29.91 1013 10 16.09344 0.001 0.001
2:53 pm 14:53 Cloudy 53 11.7 46 7.8 77 77 ESE 5 7 29.91 1013 10 16.09344 0.001 0.001
3:53 pm 15:53 Cloudy 54 12.2 44 6.7 69 69 E 6 9 29.88 1012 10 16.09344 0 0
4:53 pm 16:53 Mostly Cloudy 56 13.3 45 7.2 67 67 E 5 7 29.85 1011 10 16.09344 0 0
5:53 pm 17:53 Cloudy 56 13.3 46 7.8 70 70 E 6 9 29.85 1011 10 16.09344 0 0
6:53 pm 18:53 Cloudy 56 13.3 46 7.8 70 70 NE 5 7 29.85 1011 10 16.09344 0 0
7:53 pm 19:53 Cloudy 53 11.7 47 8.3 80 80 NNE 8 13 29.88 1012 10 16.09344 0 0
8:53 pm 20:53 Cloudy with Light Rain 52 11.1 48 8.9 86 86 NNE 5 7 29.88 1012 10 16.09344 0.001 0.001
9:53 pm 21:53 Cloudy with Light Rain 51 10.6 48 8.9 89 89 Calm 29.91 1013 8 12.874752 0.05 1.27
10:53 pm 22:53 Cloudy with Light Rain 50 10 49 9.4 96 96 NNW 5 7 29.91 1013 7 11.265408 0.05 1.27
11:53 pm 23:53 Cloudy with Light Rain 49 9.4 49 9.4 100 100 W 5 7 29.91 1013 10 16.09344 0.01 0.254

Powered by AerisWeather